Regional Weather Roundup
Issued by NWS Bismarck, ND

Home | Current Version | Previous Version | Text Only | Print | Product List | Glossary On
Versions: 1 2 3 4 5 6 7 8 9 10 11 12 13 14 15 16 17 18 19 20 21 22 23 24 25 26 27 28 29 30 31 32 33 34 35 36 37 38 39 40 41 42 43 44 45 46 47 48 49 50
000
ASUS43 KBIS 300010
RWRBIS

NWR BROADCAST TEXT
NATIONAL WEATHER SERVICE BISMARCK ND
700 PM CDT SUN MAR 29 2015

NOTE: "FAIR" INDICATES FEW OR NO CLOUDS BELOW 12,000 FEET WITH NO
SIGNIFICANT WEATHER AND/OR OBSTRUCTIONS TO VISIBILITY.


CITY           SKY/WX    TMP DP  RH WIND       PRES   REMARKS
WILLISTON      MOSUNNY   59  33  37 W13G22    29.93F
MINOT          MOSUNNY   55  30  38 NW12      29.92S
MINOT AFB      SUNNY     55  34  44 NW14      29.91S
BISMARCK       SUNNY     59  28  30 NW20G29   29.97S
DICKINSON      SUNNY     56  27  32 W12       29.96F
GARRISON         N/A     57  32  38 NW17      29.94F
HETTINGER ARPT MOSUNNY   58  28  32 W17       30.01F
JAMESTOWN      CLEAR     53  27  36 W13       29.93S
BEACH          FAIR      57  28  33 W12G22    29.99S
CARRINGTON     FAIR      54  27  35 NW17      29.93S
CROSBY         FAIR      57  30  35 W10       29.91F
HARVEY         FAIR      54  30  40 NW15G21   29.92S
HAZEN          FAIR      57  27  30 NW16      29.97S
LINTON         FAIR      57  32  38 NW16      29.97F
MANDAN         FAIR      57  27  30 NW15G23   29.97S
OAKES            N/A     54  30  40 W15G23    29.97R
RUGBY          FAIR      50  36  57 NW15      29.91R
WATFORD CITY   FAIR      57  32  38 W16       29.93F
$$

CITY           SKY/WX    TMP DP  RH WIND       PRES   REMARKS
GRAND FORKS    MOCLDY    52  28  39 W10       29.88S
GRAND FORKS AF NOT AVBL
DEVILS LAKE    PTCLDY    54  30  40 NW17      29.89S
FARGO          CLOUDY    54  26  34 NW17      29.91S
CAVALIER       FAIR      50  30  46 NW10      29.86S
GWINNER        PTCLDY    54  30  40 NW14        N/A
ROLLA          FAIR      48  32  53 NW16G22   29.90S
$$

CITY           SKY/WX    TMP DP  RH WIND       PRES   REMARKS
ABERDEEN       CLEAR     58  22  24 NW14      30.00F
MOBRIDGE       SUNNY     61  31  32 NW13      29.97F
BUFFALO          N/A     59  26  28 W22       29.97F
RAPID CITY     CLOUDY    60  26  27 N6        30.06F
GLASGOW        PTSUNNY   62  31  31 W18       29.92F
SIDNEY         PTSUNNY   61  28  29 W15       29.96F
WOLF POINT     CLOUDY    64  32  30 W17G25    29.94F
GLENDIVE         N/A     59  30  33 W14       29.98F
MILES CITY     CLOUDY    62  25  24 W15G21    29.99F
BAKER          PTSUNNY   59  29  31 W20       30.01F
$$

CITY           SKY/WX    TMP DP  RH WIND       PRES   REMARKS
BILLINGS       MOSUNNY   63  18  17 SW9       30.02S
GREAT FALLS    PTSUNNY   57  27  31 SW18G24   30.01S
REGINA         PTSUNNY   54  36  50 VRB2      29.87F
ESTEVAN        PTSUNNY   55  32  41 NW9       29.91F
$$



USA.gov is the U.S. government's official web portal to all federal, state and local government web resources and services.